Time,TemperatureF,DewpointF,PressureIn,WindDirection,WindDirectionDegrees,WindSpeedMPH,WindSpeedGustMPH,Humidity,HourlyPrecipIn,Conditions,Clouds,dailyrainin,SoftwareType,DateUTC
2013-06-25 09:14:00,62.8,32.5,29.87,SSE,159,0.0,5.0,32,0.00,,,0.00,Wunderground v.1.15,2013-06-25 15:14:00,
2013-06-25 09:24:00,63.8,32.6,29.87,SSE,160,0.0,2.0,31,0.00,,,0.00,Wunderground v.1.15,2013-06-25 15:24:00,
2013-06-25 09:34:00,65.4,31.4,29.87,SE,145,1.0,2.0,28,0.00,,,0.00,Wunderground v.1.15,2013-06-25 15:34:00,
2013-06-25 09:39:00,66.1,32.9,29.86,ESE,104,1.0,3.0,29,0.00,,,0.00,Wunderground v.1.15,2013-06-25 15:39:00,
2013-06-25 09:49:00,66.8,30.8,29.86,South,188,1.0,2.0,26,0.00,,,0.00,Wunderground v.1.15,2013-06-25 15:49:00,
2013-06-25 09:54:00,67.1,29.1,29.86,SSW,208,2.0,2.0,24,0.00,,,0.00,Wunderground v.1.15,2013-06-25 15:54:00,
2013-06-25 09:59:00,67.4,31.3,29.86,ESE,112,2.0,2.0,26,0.00,,,0.00,Wunderground v.1.15,2013-06-25 15:59:00,
2013-06-25 10:04:00,67.9,30.8,29.86,SE,137,1.0,2.0,25,0.00,,,0.00,Wunderground v.1.15,2013-06-25 16:04:00,
2013-06-25 10:14:00,68.5,31.3,29.86,South,179,1.0,5.0,25,0.00,,,0.00,Wunderground v.1.15,2013-06-25 16:14:00,
2013-06-25 10:24:00,69.2,30.8,29.85,SW,226,1.0,5.0,24,0.00,,,0.00,Wunderground v.1.15,2013-06-25 16:24:00,
2013-06-25 10:34:00,70.4,31.9,29.85,SSW,194,1.0,5.0,24,0.00,,,0.00,Wunderground v.1.15,2013-06-25 16:34:00,
2013-06-25 10:39:00,71.0,33.4,29.84,ESE,117,1.0,5.0,25,0.00,,,0.00,Wunderground v.1.15,2013-06-25 16:39:00,
2013-06-25 10:49:00,71.4,32.7,29.85,ESE,121,2.0,2.0,24,0.00,,,0.00,Wunderground v.1.15,2013-06-25 16:49:00,
2013-06-25 10:54:00,72.1,34.3,29.85,SSE,150,1.0,5.0,25,0.00,,,0.00,Wunderground v.1.15,2013-06-25 16:54:00,
2013-06-25 11:04:00,72.5,34.7,29.86,ESE,104,2.0,5.0,25,0.00,,,0.00,Wunderground v.1.15,2013-06-25 17:04:00,
2013-06-25 11:09:00,72.9,34.0,29.85,NE,54,2.0,2.0,24,0.00,,,0.00,Wunderground v.1.15,2013-06-25 17:09:00,
2013-06-25 11:14:00,73.7,33.6,29.85,SSE,150,1.0,9.0,23,0.00,,,0.00,Wunderground v.1.15,2013-06-25 17:14:00,
2013-06-25 11:24:00,74.6,33.2,29.85,SSW,205,1.0,2.0,22,0.00,,,0.00,Wunderground v.1.15,2013-06-25 17:24:00,
2013-06-25 11:29:00,73.9,31.5,29.85,SSW,205,2.0,2.0,21,0.00,,,0.00,Wunderground v.1.15,2013-06-25 17:29:00,
2013-06-25 11:34:00,73.8,33.7,29.85,SSE,151,2.0,9.0,23,0.00,,,0.00,Wunderground v.1.15,2013-06-25 17:34:00,
2013-06-25 11:44:00,75.1,32.5,29.85,SW,232,2.0,9.0,21,0.00,,,0.00,Wunderground v.1.15,2013-06-25 17:44:00,
2013-06-25 11:54:00,75.0,33.6,29.84,SSW,210,2.0,9.0,22,0.00,,,0.00,Wunderground v.1.15,2013-06-25 17:54:00,
2013-06-25 12:04:00,76.0,34.4,29.85,ESE,116,1.0,9.0,22,0.00,,,0.00,Wunderground v.1.15,2013-06-25 18:04:00,
2013-06-25 12:09:00,76.6,34.9,29.84,WSW,237,1.0,9.0,22,0.00,,,0.00,Wunderground v.1.15,2013-06-25 18:09:00,
2013-06-25 12:14:00,76.4,33.6,29.84,East,80,2.0,9.0,21,0.00,,,0.00,Wunderground v.1.15,2013-06-25 18:14:00,
2013-06-25 12:24:00,77.4,34.4,29.84,South,182,1.0,7.0,21,0.00,,,0.00,Wunderground v.1.15,2013-06-25 18:24:00,
2013-06-25 12:29:00,77.5,34.5,29.85,East,85,1.0,7.0,21,0.00,,,0.00,Wunderground v.1.15,2013-06-25 18:29:00,
2013-06-25 12:39:00,77.5,35.6,29.84,East,88,1.0,7.0,22,0.00,,,0.00,Wunderground v.1.15,2013-06-25 18:39:00,
2013-06-25 12:44:00,77.5,33.2,29.84,SSW,203,2.0,7.0,20,0.00,,,0.00,Wunderground v.1.15,2013-06-25 18:44:00,
2013-06-25 12:54:00,77.5,34.5,29.84,ESE,103,2.0,7.0,21,0.00,,,0.00,Wunderground v.1.15,2013-06-25 18:54:00,
2013-06-25 13:04:00,78.0,34.9,29.84,ESE,119,1.0,7.0,21,0.00,,,0.00,Wunderground v.1.15,2013-06-25 19:04:00,
2013-06-25 13:09:00,78.3,35.1,29.84,East,92,2.0,7.0,21,0.00,,,0.00,Wunderground v.1.15,2013-06-25 19:09:00,
2013-06-25 13:14:00,78.4,34.0,29.85,ESE,115,2.0,7.0,20,0.00,,,0.00,Wunderground v.1.15,2013-06-25 19:14:00,
2013-06-25 13:24:00,78.5,38.7,29.84,SE,131,2.0,6.0,24,0.00,,,0.00,Wunderground v.1.15,2013-06-25 19:24:00,
2013-06-25 13:29:00,78.7,34.2,29.84,East,90,2.0,6.0,20,0.00,,,0.00,Wunderground v.1.15,2013-06-25 19:29:00,
2013-06-25 13:39:00,78.3,35.1,29.84,SSW,201,2.0,6.0,21,0.00,,,0.00,Wunderground v.1.15,2013-06-25 19:39:00,
2013-06-25 13:49:00,79.0,35.7,29.84,SSE,167,2.0,6.0,21,0.00,,,0.00,Wunderground v.1.15,2013-06-25 19:49:00,
2013-06-25 13:54:00,79.1,37.0,29.84,South,189,2.0,6.0,22,0.00,,,0.00,Wunderground v.1.15,2013-06-25 19:54:00,
2013-06-25 13:59:00,79.8,33.9,29.84,SW,218,2.0,6.0,19,0.00,,,0.00,Wunderground v.1.15,2013-06-25 19:59:00,
2013-06-25 14:09:00,79.7,37.5,29.83,East,90,2.0,6.0,22,0.00,,,0.00,Wunderground v.1.15,2013-06-25 20:09:00,
2013-06-25 14:14:00,79.3,36.0,29.84,SSW,200,3.0,6.0,21,0.00,,,0.00,Wunderground v.1.15,2013-06-25 20:14:00,
2013-06-25 14:24:00,80.1,37.8,29.83,SSW,202,2.0,6.0,22,0.00,,,0.00,Wunderground v.1.15,2013-06-25 20:24:00,
2013-06-25 14:34:00,79.6,36.2,29.83,SSW,208,2.0,6.0,21,0.00,,,0.00,Wunderground v.1.15,2013-06-25 20:34:00,
2013-06-25 14:44:00,80.6,37.0,29.83,East,82,2.0,6.0,21,0.00,,,0.00,Wunderground v.1.15,2013-06-25 20:44:00,
2013-06-25 14:49:00,80.7,35.9,29.83,SSW,209,2.0,2.0,20,0.00,,,0.00,Wunderground v.1.15,2013-06-25 20:49:00,
2013-06-25 14:54:00,80.9,37.3,29.82,East,90,2.0,6.0,21,0.00,,,0.00,Wunderground v.1.15,2013-06-25 20:54:00,
2013-06-25 15:04:00,80.5,38.1,29.81,East,83,2.0,6.0,22,0.00,,,0.00,Wunderground v.1.15,2013-06-25 21:04:00,
2013-06-25 15:14:00,80.7,37.1,29.81,ESE,118,2.0,6.0,21,0.00,,,0.00,Wunderground v.1.15,2013-06-25 21:14:00,
2013-06-25 15:24:00,81.0,37.4,29.82,SSE,151,1.0,6.0,21,0.00,,,0.00,Wunderground v.1.15,2013-06-25 21:24:00,
2013-06-25 15:34:00,81.3,37.6,29.81,South,183,2.0,4.0,21,0.00,,,0.00,Wunderground v.1.15,2013-06-25 21:34:00,
2013-06-25 15:39:00,81.4,38.9,29.81,SE,129,1.0,1.0,22,0.00,,,0.00,Wunderground v.1.15,2013-06-25 21:39:00,
2013-06-25 15:44:00,81.3,36.4,29.81,SE,139,2.0,2.0,20,0.00,,,0.00,Wunderground v.1.15,2013-06-25 21:44:00,
2013-06-25 15:54:00,81.1,38.6,29.80,East,97,1.0,3.0,22,0.00,,,0.00,Wunderground v.1.15,2013-06-25 21:54:00,
2013-06-25 16:04:00,79.6,36.2,29.80,South,188,2.0,6.0,21,0.00,,,0.00,Wunderground v.1.15,2013-06-25 22:04:00,
2013-06-25 16:14:00,79.3,37.1,29.80,East,94,1.0,2.0,22,0.00,,,0.00,Wunderground v.1.15,2013-06-25 22:14:00,
2013-06-25 16:24:00,79.2,39.3,29.79,East,96,1.0,6.0,24,0.00,,,0.00,Wunderground v.1.15,2013-06-25 22:24:00,
2013-06-25 16:34:00,78.7,37.8,29.79,ENE,76,1.0,6.0,23,0.00,,,0.00,Wunderground v.1.15,2013-06-25 22:34:00,
2013-06-25 16:44:00,78.6,37.7,29.79,ESE,120,1.0,6.0,23,0.00,,,0.00,Wunderground v.1.15,2013-06-25 22:44:00,
2013-06-25 16:54:00,78.3,36.3,29.78,SW,225,1.0,6.0,22,0.00,,,0.00,Wunderground v.1.15,2013-06-25 22:54:00,
2013-06-25 17:04:00,78.4,36.4,29.78,SSE,157,1.0,6.0,22,0.00,,,0.00,Wunderground v.1.15,2013-06-25 23:04:00,
2013-06-25 17:09:00,78.4,36.4,29.78,SSE,162,1.0,6.0,22,0.00,,,0.00,Wunderground v.1.15,2013-06-25 23:09:00,
2013-06-25 17:14:00,78.2,35.0,29.78,SSW,199,1.0,7.0,21,0.00,,,0.00,Wunderground v.1.15,2013-06-25 23:14:00,
2013-06-25 17:24:00,77.8,35.9,29.77,East,79,1.0,7.0,22,0.00,,,0.00,Wunderground v.1.15,2013-06-25 23:24:00,
2013-06-25 17:34:00,77.8,35.9,29.78,ESE,111,1.0,7.0,22,0.00,,,0.00,Wunderground v.1.15,2013-06-25 23:34:00,
2013-06-25 17:39:00,77.6,35.7,29.77,ENE,69,1.0,1.0,22,0.00,,,0.00,Wunderground v.1.15,2013-06-25 23:39:00,
2013-06-25 17:44:00,77.5,35.6,29.78,SSE,165,1.0,2.0,22,0.00,,,0.00,Wunderground v.1.15,2013-06-25 23:44:00,
2013-06-25 17:54:00,77.3,36.6,29.78,South,179,1.0,2.0,23,0.00,,,0.00,Wunderground v.1.15,2013-06-25 23:54:00,
2013-06-25 17:59:00,77.1,35.3,29.78,SE,134,1.0,7.0,22,0.00,,,0.00,Wunderground v.1.15,2013-06-25 23:59:00,
2013-06-25 18:04:00,76.8,36.2,29.78,SE,126,1.0,7.0,23,0.00,,,0.00,Wunderground v.1.15,2013-06-26 00:04:00,
2013-06-25 18:14:00,76.5,35.9,29.78,SE,127,1.0,7.0,23,0.00,,,0.00,Wunderground v.1.15,2013-06-26 00:14:00,
2013-06-25 18:24:00,76.3,34.6,29.78,South,180,1.0,5.0,22,0.00,,,0.00,Wunderground v.1.15,2013-06-26 00:24:00,
2013-06-25 18:34:00,75.9,35.4,29.78,SE,146,2.0,5.0,23,0.00,,,0.00,Wunderground v.1.15,2013-06-26 00:34:00,
2013-06-25 18:39:00,75.7,35.3,29.78,South,178,1.0,1.0,23,0.00,,,0.00,Wunderground v.1.15,2013-06-26 00:39:00,
2013-06-25 18:49:00,75.7,36.3,29.79,South,188,0.0,5.0,24,0.00,,,0.00,Wunderground v.1.15,2013-06-26 00:49:00,
2013-06-25 18:59:00,75.6,35.2,29.79,South,188,0.0,5.0,23,0.00,,,0.00,Wunderground v.1.15,2013-06-26 00:59:00,
2013-06-25 19:04:00,75.5,35.1,29.80,South,189,1.0,5.0,23,0.00,,,0.00,Wunderground v.1.15,2013-06-26 01:04:00,
2013-06-25 19:14:00,74.6,36.4,29.80,South,173,0.0,3.0,25,0.00,,,0.00,Wunderground v.1.15,2013-06-26 01:14:00,
2013-06-25 19:24:00,73.5,35.5,29.81,South,173,0.0,3.0,25,0.00,,,0.00,Wunderground v.1.15,2013-06-26 01:24:00,
2013-06-25 19:34:00,72.6,34.7,29.81,South,173,0.0,3.0,25,0.00,,,0.00,Wunderground v.1.15,2013-06-26 01:34:00,
2013-06-25 19:44:00,71.9,37.0,29.81,South,173,0.0,3.0,28,0.00,,,0.00,Wunderground v.1.15,2013-06-26 01:44:00,
2013-06-25 19:49:00,71.3,37.4,29.81,South,173,0.0,3.0,29,0.00,,,0.00,Wunderground v.1.15,2013-06-26 01:49:00,
2013-06-25 19:54:00,70.6,38.5,29.82,South,173,0.0,3.0,31,0.00,,,0.00,Wunderground v.1.15,2013-06-26 01:54:00,
2013-06-25 19:59:00,70.1,36.3,29.82,South,173,0.0,3.0,29,0.00,,,0.00,Wunderground v.1.15,2013-06-26 01:59:00,
2013-06-25 20:09:00,69.0,39.4,29.82,South,173,0.0,3.0,34,0.00,,,0.00,Wunderground v.1.15,2013-06-26 02:09:00,
2013-06-25 20:14:00,68.3,38.1,29.82,South,173,0.0,3.0,33,0.00,,,0.00,Wunderground v.1.15,2013-06-26 02:14:00,
2013-06-25 20:24:00,66.9,39.1,29.82,South,173,0.0,2.0,36,0.00,,,0.00,Wunderground v.1.15,2013-06-26 02:24:00,
2013-06-25 20:34:00,65.6,37.9,29.83,South,173,0.0,2.0,36,0.00,,,0.00,Wunderground v.1.15,2013-06-26 02:34:00,
2013-06-25 20:39:00,65.0,39.4,29.83,South,173,0.0,2.0,39,0.00,,,0.00,Wunderground v.1.15,2013-06-26 02:39:00,
2013-06-25 20:49:00,64.0,39.8,29.84,South,173,0.0,2.0,41,0.00,,,0.00,Wunderground v.1.15,2013-06-26 02:49:00,
2013-06-25 20:59:00,62.9,38.8,29.84,South,173,0.0,2.0,41,0.00,,,0.00,Wunderground v.1.15,2013-06-26 02:59:00,
2013-06-25 21:09:00,61.5,37.6,29.84,South,173,0.0,2.0,41,0.00,,,0.00,Wunderground v.1.15,2013-06-26 03:09:00,
2013-06-25 21:14:00,60.9,38.8,29.84,South,173,0.0,2.0,44,0.00,,,0.00,Wunderground v.1.15,2013-06-26 03:14:00,
2013-06-25 21:23:00,60.1,35.7,29.85,South,173,0.0,0.0,40,0.00,,,0.00,Wunderground v.1.15,2013-06-26 03:23:00,
2013-06-25 21:29:00,59.7,38.3,29.85,South,173,0.0,0.0,45,0.00,,,0.00,Wunderground v.1.15,2013-06-26 03:29:00,
2013-06-25 21:39:00,59.0,38.2,29.86,South,173,0.0,0.0,46,0.00,,,0.00,Wunderground v.1.15,2013-06-26 03:39:00,
2013-06-25 21:44:00,58.5,36.1,29.87,South,173,0.0,0.0,43,0.00,,,0.00,Wunderground v.1.15,2013-06-26 03:44:00,
2013-06-25 21:54:00,58.0,37.3,29.88,South,173,0.0,0.0,46,0.00,,,0.00,Wunderground v.1.15,2013-06-26 03:54:00,
2013-06-25 22:04:00,57.6,36.4,29.87,South,173,0.0,0.0,45,0.00,,,0.00,Wunderground v.1.15,2013-06-26 04:04:00,
2013-06-25 22:08:00,57.3,36.1,29.88,South,173,0.0,0.0,45,0.00,,,0.00,Wunderground v.1.15,2013-06-26 04:08:00,
2013-06-25 22:14:00,56.7,36.1,29.88,South,173,0.0,0.0,46,0.00,,,0.00,Wunderground v.1.15,2013-06-26 04:14:00,
2013-06-25 22:24:00,56.0,34.9,29.90,South,173,0.0,0.0,45,0.00,,,0.00,Wunderground v.1.15,2013-06-26 04:24:00,
2013-06-25 22:34:00,55.5,36.1,29.90,South,173,0.0,0.0,48,0.00,,,0.00,Wunderground v.1.15,2013-06-26 04:34:00,
2013-06-25 22:39:00,55.0,36.2,29.90,South,173,0.0,0.0,49,0.00,,,0.00,Wunderground v.1.15,2013-06-26 04:39:00,
2013-06-25 22:49:00,54.3,34.5,29.90,South,173,0.0,0.0,47,0.00,,,0.00,Wunderground v.1.15,2013-06-26 04:49:00,
2013-06-25 22:54:00,54.1,34.8,29.90,South,173,0.0,0.0,48,0.00,,,0.00,Wunderground v.1.15,2013-06-26 04:54:00,
2013-06-25 23:03:00,53.7,36.0,29.90,South,173,0.0,0.0,51,0.00,,,0.00,Wunderground v.1.15,2013-06-26 05:03:00,
2013-06-25 23:14:00,53.5,36.3,29.90,South,173,0.0,0.0,52,0.00,,,0.00,Wunderground v.1.15,2013-06-26 05:14:00,
2013-06-25 23:19:00,53.3,36.1,29.90,South,173,0.0,0.0,52,0.00,,,0.00,Wunderground v.1.15,2013-06-26 05:19:00,
2013-06-25 23:29:00,53.2,37.0,29.91,South,173,0.0,0.0,54,0.00,,,0.00,Wunderground v.1.15,2013-06-26 05:29:00,
2013-06-25 23:39:00,52.6,34.0,29.90,South,173,0.0,0.0,49,0.00,,,0.00,Wunderground v.1.15,2013-06-26 05:39:00,
2013-06-25 23:48:00,51.7,34.1,29.91,South,173,0.0,0.0,51,0.00,,,0.00,Wunderground v.1.15,2013-06-26 05:48:00,
2013-06-25 23:59:00,51.4,34.8,29.91,South,173,0.0,0.0,53,0.00,,,0.00,Wunderground v.1.15,2013-06-26 05:59:00,